This demonstration page uses our WeatherBlox Daily Observations layout. Learn more.

Left ArrowRight Arrow

Hourly Observations for February 19, 2020

Temp ( °F °C ) Dew Point ( °F °C ) Humidity (%) Winds ( mph kmh ) Pressure ( in mb ) Visibility ( mi km ) Precip ( " mm )
12:53 am 00:53 Clear 31 -0.6 27 -2.8 85 85 WNW 5 7 30.38 1029 8 13 N/A
1:53 am 01:53 Clear with Mist and Fog 28 -2.2 25 -3.9 88 88 N N/A 30.40 1030 6 10 N/A
2:53 am 02:53 Clear with Mist and Fog 25 -3.9 23 -5 92 92 N N/A 30.41 1030 4 6 N/A
3:53 am 03:53 Clear with Mist and Fog 23 -5 21 -6.1 92 92 N N/A 30.41 1030 4 6 N/A
4:53 am 04:53 Clear with Mist and Fog 23 -5 22 -5.6 96 96 N N/A 30.44 1031 4 6 N/A
5:53 am 05:53 Clear with Mist and Fog 22 -5.6 21 -6.1 96 96 N N/A 30.46 1032 4 6 N/A
6:53 am 06:53 Clear with Mist and Fog 21 -6.1 19 -7.2 92 92 N N/A 30.49 1032 5 8 N/A
7:49 am 07:49 Sunny with Mist and Fog 21 -6 19 -7 93 93 N N/A 30.54 1034 3 4 N/A
7:53 am 07:53 Sunny with Mist and Fog 22 -5.6 20 -6.7 92 92 N N/A 30.52 1033 3 4 N/A
8:09 am 08:09 Sunny with Mist and Fog 23 -5 20 -6.7 88 88 N N/A 30.55 1034 4 6 N/A
8:53 am 08:53 Sunny 30 -1.1 25 -3.9 82 82 NNW 3 6 30.55 1034 7 11 N/A
9:53 am 09:53 Sunny 32 undefined 24 -4.4 73 73 N 8 13 30.55 1035 10 16 N/A
10:53 am 10:53 Sunny 36 2.2 24 -4.4 62 62 N 8 13 30.56 1035 10 16 N/A
11:53 am 11:53 Sunny 37 2.8 24 -4.4 59 59 undefined N/A 30.57 1035 10 16 N/A
12:53 pm 12:53 Sunny 40 4.4 23 -5 51 51 N 7 11 30.55 1034 10 16 N/A
1:53 pm 13:53 Sunny 42 5.6 22 -5.6 45 45 VRB 3 6 30.53 1034 10 16 N/A
2:53 pm 14:53 Sunny 42 5.6 22 -5.6 45 45 VRB 5 7 30.52 1034 10 16 N/A
3:53 pm 15:53 Sunny 43 6.1 22 -5.6 43 43 NNE 8 13 30.51 1033 10 16 N/A
4:53 pm 16:53 Sunny 42 5.6 22 -5.6 45 45 NNE 8 13 30.51 1033 10 16 N/A
5:53 pm 17:53 Sunny 39 3.9 23 -5 53 53 N 6 9 30.52 1034 10 16 N/A
6:53 pm 18:53 Clear 36 2.2 23 -5 59 59 N 6 9 30.52 1034 10 16 N/A
7:53 pm 19:53 Clear 33 0.6 23 -5 66 66 NNE 3 6 30.53 1034 10 16 N/A
8:53 pm 20:53 Clear 31 -0.6 24 -4.4 76 76 NNE 5 7 30.52 1034 10 16 N/A
9:53 pm 21:53 Clear 31 -0.6 22 -5.6 69 69 N N/A 30.54 1034 10 16 N/A
10:53 pm 22:53 Clear 29 -1.7 25 -3.9 85 85 N N/A 30.54 1034 10 16 N/A
11:53 pm 23:53 Clear 27 -2.8 22 -5.6 81 81 N N/A 30.54 1034 10 16 N/A

Powered by AerisWeather